Elkins, WV

2:31 AM EDT on June 23, 2017 (GMT -0400)
Elkins-Randolph County

Weather History for KEKN - May, 2014

Change the Weather History Date:

Thursday, May 8, 2014

  Actual Average Record
Temperature  
Mean Temperature 66 °F 56 °F  
Max Temperature 83 °F 69 °F 86 °F (1979)
Min Temperature 48 °F 43 °F 23 °F (1974)
Degree Days  
Heating Degree Days 0 9  
Month to date heating degree days 70 82  
Since 1 July heating degree days 5877 5645  
Cooling Degree Days 1 0  
Month to date cooling degree days 4 0  
Year to date cooling degree days 6 3  
Growing Degree Days 15 (Base 50)    
Moisture  
Dew Point 50 °F    
Average Humidity 62    
Maximum Humidity 93    
Minimum Humidity 31    
Precipitation  
Precipitation 0.00 in 0.16 in 1.50 in (1901)
Month to date precipitation 0.11 1.23  
Year to date precipitation 11.50 15.32  
Snow  
Snow 0.00 in - - ()
Month to date snowfall 0.0  
Since 1 September snowfall 92.3  
Snow Depth 0.00 in    
Sea Level Pressure  
Sea Level Pressure 30.12 in    
Wind  
Wind Speed 5 mph (West)    
Max Wind Speed 18 mph    
Max Gust Speed 25 mph    
Visibility 10 miles    
Events      
T = Trace of Precipitation, MM = Missing Value Source: NWS Daily Summary

Daily Weather History Graph

Daily Weather History Graph

Search for Another Location

Airport or City:

Trip Planner

Search our weather history database for the weather conditions in past years. The results will help you decide how hot, cold, wet, or windy it might be!

Date:

Astronomy

May. 08, 2014 Rise Set
Actual Time 6:13 AM EDT 8:18 PM EDT
Civil Twilight 5:44 AM EDT 8:48 PM EDT
Nautical Twilight 5:08 AM EDT 9:24 PM EDT
Astronomical Twilight 4:29 AM EDT 10:03 PM EDT
Moon 2:21 PM EDT (5/8) 2:40 AM EDT (5/8)
Length of Visible Light 15h 03m
Length of Day
14h 04m
Waxing Gibbous, 64% of the Moon is Illuminated
May 8
Waxing Gibbous
May 14
Full
May 21
Last Quarter
May 28
New
Jun 5
First Quarter

Hourly Weather History & Observations

Time (EDT) Temp. Dew Point Humidity Pressure Visibility Wind Dir Wind Speed Gust Speed Precip Events Conditions
12:51 AM 55.0 °F 48.9 °F 80% 30.08 in 10.0 mi SE 4.6 mph - N/A   Clear
1:51 AM 55.9 °F 48.9 °F 77% 30.07 in 10.0 mi Calm Calm - N/A   Clear
2:51 AM 54.0 °F 48.9 °F 83% 30.07 in 10.0 mi NW 3.5 mph - N/A   Clear
3:51 AM 50.0 °F 46.9 °F 89% 30.09 in 10.0 mi Calm Calm - N/A   Clear
4:51 AM 50.0 °F 46.4 °F 87% 30.13 in 10.0 mi Calm Calm - N/A   Clear
5:51 AM 48.9 °F 46.9 °F 93% 30.14 in 8.0 mi Calm Calm - N/A   Clear
6:51 AM 50.0 °F 48.0 °F 93% 30.16 in 8.0 mi Calm Calm - N/A   Clear
7:51 AM 59.0 °F 53.6 °F 82% 30.19 in 10.0 mi Calm Calm - N/A   Clear
8:51 AM 71.1 °F 50.0 °F 47% 30.18 in 10.0 mi Variable 5.8 mph - N/A   Clear
9:51 AM 73.9 °F 52.0 °F 46% 30.18 in 10.0 mi West 8.1 mph 16.1 mph N/A   Partly Cloudy
10:51 AM 77.0 °F 52.0 °F 42% 30.18 in 10.0 mi WSW 15.0 mph 19.6 mph N/A   Scattered Clouds
11:51 AM 77.0 °F 52.0 °F 42% 30.17 in 10.0 mi West 12.7 mph 19.6 mph N/A   Scattered Clouds
12:51 PM 79.0 °F 48.0 °F 34% 30.15 in 10.0 mi West 11.5 mph - N/A   Clear
1:51 PM 81.0 °F 50.0 °F 34% 30.12 in 10.0 mi Variable 6.9 mph - N/A   Clear
2:51 PM 82.9 °F 48.0 °F 29% 30.11 in 10.0 mi West 8.1 mph - N/A   Clear
3:51 PM 82.9 °F 48.0 °F 29% 30.09 in 10.0 mi West 13.8 mph - N/A   Clear
4:51 PM 82.0 °F 50.0 °F 33% 30.08 in 10.0 mi WNW 11.5 mph - N/A   Clear
5:51 PM 82.0 °F 50.0 °F 33% 30.08 in 10.0 mi WNW 10.4 mph - N/A   Clear
6:51 PM 81.0 °F 50.0 °F 34% 30.08 in 10.0 mi West 11.5 mph - N/A   Clear
7:51 PM 79.0 °F 48.9 °F 35% 30.09 in 10.0 mi West 9.2 mph - N/A   Clear
8:51 PM 64.9 °F 52.0 °F 63% 30.09 in 10.0 mi Calm Calm - N/A   Clear
9:51 PM 60.1 °F 52.0 °F 75% 30.12 in 10.0 mi Calm Calm - N/A   Clear
10:51 PM 57.2 °F 51.8 °F 82% 30.16 in 10.0 mi Calm Calm - N/A   Clear
11:51 PM 55.9 °F 51.1 °F 84% 30.14 in 10.0 mi Calm Calm - N/A   Clear